Home > Weather > Waco > Past weeks

Flag for USA Past Weather in Waco, Texas, USA — Yesterday and Last 2 Weeks

Now
83 °F

Sunny.


Feels Like: 88 °F
Forecast: 76 / 91 °F
Wind: 7 mph from North

Location: Waco Regional Airport

Current Time: Jun 28, 2016 at 10:06:10 AM

Latest Report: Jun 28, 2016 at 8:51 AM


Visibility: 10 mi

Pressure: 30.05 "Hg

Humidity: 70%

Dew Point: 72 °F

Location of WacoLocation

Past Weather in Waco — Graph

°F

Waco Temperature Yesterday

Maximum temperature yesterday: 96 °F (at 3:51 PM)
Minimum temperature yesterday: 76 °F (at 6:51 AM)
Average temperature yesterday: 86 °F

High & Low Weather Summary for the Past Weeks

 TemperatureHumidityPressure
High96 °F (Jun 15, 2:51 PM)91% (Jun 15, 5:51 AM)30.20 "Hg (Jun 15, 5:51 AM)
Low71 °F (Jun 19, 5:51 AM)40% (Jun 27, 4:51 PM)29.77 "Hg (Jun 14, 6:51 PM)
Average85 °F66%29.98 "Hg
* Reported Jun 13 7:51 AM — Jun 28 7:51 AM, Waco, Weather by CustomWeather, © 2016

Note: Actual official high and low records may vary slightly from our data, if they occured in-between our weather recording intervals... More about our weather records

Advertising

Waco Weather History for the Previous 24 Hours

Scroll right to see more
 ConditionsComfort  
Time TempWeatherWind HumidityBarometerVisibility
7:51 AM
Tue, Jun 28
80 °FSunny.6 mph74%30.03 "Hg10 mi
6:51 AM75 °FClear.5 mph85%30.03 "Hg10 mi
5:51 AM75 °FClear.5 mph85%30.02 "Hg10 mi
4:51 AM76 °FClear.3 mph85%30.02 "Hg10 mi
3:51 AM77 °FClear.No wind85%30.01 "Hg10 mi
2:51 AM77 °FClear.5 mph82%30.02 "Hg10 mi
1:51 AM78 °FClear.No wind76%30.03 "Hg10 mi
12:51 AM79 °FClear.3 mph74%30.05 "Hg10 mi
11:51 PM
Mon, Jun 27
79 °FClear.No wind74%30.04 "Hg10 mi
10:51 PM80 °FClear.9 mph67%30.05 "Hg10 mi
9:51 PM79 °FClear.3 mph74%30.01 "Hg10 mi
8:51 PM84 °FSunny.5 mph57%30.01 "Hg10 mi
7:51 PM91 °FSunny.5 mph50%30.00 "Hg10 mi
6:51 PM94 °FSunny.6 mph43%29.98 "Hg10 mi
5:51 PM95 °FSunny.6 mph41%29.98 "Hg10 mi
4:51 PM96 °FScattered clouds.3 mph40%29.99 "Hg10 mi
3:51 PM96 °FScattered clouds.5 mph41%30.01 "Hg10 mi
2:51 PM94 °FScattered clouds.6 mph43%30.03 "Hg10 mi
1:51 PM94 °FScattered clouds.6 mph44%30.06 "Hg10 mi
12:51 PM92 °FPassing clouds.5 mph47%30.08 "Hg10 mi
11:51 AM91 °FPassing clouds.3 mph50%30.09 "Hg10 mi
10:51 AM90 °FSunny.8 mph56%30.09 "Hg10 mi
Weather by CustomWeather, © 2016

See weather overviewHow to use our weather pages